Moline, IL
on Tuesday, October 29, 2013

Tuesday
Previous Day Next Day
Daily Summary
 ActualAverageRecord
Temperature
Mean Temperature °F 49°F  
Max Temperature 59°F 59°F 84°F (1937)
Min Temperature 37°F 39°F 12°F (1925)
Degree Days
Heating Degree Days 17 17  
Month to date heating degree days 402 344  
Since 1 July heating degree days 480 448  
Cooling Degree Days 0 0  
Month to date cooling degree days 27 11  
Year to date cooling degree days 998 1000  
Moisture
Dew Point 38°F   
Average Humidity 72    
Maximum Humidity 96    
Minimum Humidity 47    
Precipitation
Precipitation 0.00 in 0.10 in 1.17 in (1961)
Month to date precipitation 1.40 2.77  
Year to date precipitation 34.97 33.02  
Snow
Snow 0.00 in 0.00 in in ()
Month to date snowfall 0.4 0.0  
Since 1 July snowfall 0.4 0.0  
Since 1 September snowfall 0.4 0.0  
Snow Depth 0.00 in   
Wind
Wind Speed 9 mph   
Max Wind Speed 14 mph   
Max Gust Speed 20 mph   
Visibility 9 miles   
Events     

Key: T is trace of precipitation, MM is missing value
Source: NWS Daily Summary
Time(CDT)TemperatureDew PointHumidity Pressure Visibility Wind DirectionWind SpeedGust SpeedPrecipitationEvents Conditions
12:52 AM 39.9°F 33.1°F 77% 30.33 in 10.0 miles ENE 11.5 mph - N/A   Clear
1:52 AM 39.0°F 32.0°F 76% 30.33 in 10.0 miles ENE 9.2 mph - N/A   Clear
2:52 AM 37.0°F 32.0°F 82% 30.33 in 10.0 miles ENE 8.1 mph - N/A   Clear
3:52 AM 37.9°F 32.0°F 79% 30.32 in 10.0 miles East 9.2 mph - N/A   Clear
4:52 AM 37.9°F 33.1°F 83% 30.31 in 10.0 miles East 9.2 mph - N/A   Clear
5:52 AM 37.9°F 33.1°F 83% 30.32 in 10.0 miles East 9.2 mph - N/A   Clear
6:52 AM 37.0°F 33.1°F 86% 30.30 in 10.0 miles East 9.2 mph - N/A   Clear
7:52 AM 37.0°F 34.0°F 89% 30.30 in 10.0 miles East 11.5 mph - N/A   Clear
8:52 AM 37.9°F 35.1°F 89% 30.30 in 10.0 miles East 9.2 mph - N/A   Clear
9:52 AM 39.0°F 36.0°F 89% 30.30 in 9.0 miles East 9.2 mph - N/A   Clear
10:52 AM 43.0°F 37.0°F 80% 30.28 in 10.0 miles East 9.2 mph - N/A   Partly Cloudy
11:52 AM 50.0°F 39.0°F 66% 30.26 in 10.0 miles East 9.2 mph - N/A   Partly Cloudy
12:52 PM 52.0°F 39.0°F 61% 30.22 in 10.0 miles East 10.4 mph - N/A   Partly Cloudy
1:52 PM 57.9°F 37.9°F 47% 30.17 in 10.0 miles ESE 11.5 mph - N/A   Clear
2:52 PM 57.9°F 37.0°F 46% 30.15 in 10.0 miles SE 8.1 mph - N/A   Mostly Cloudy
3:52 PM 55.9°F 37.0°F 49% 30.14 in 10.0 miles ESE 10.4 mph - N/A   Overcast
4:50 PM 53.6°F 37.4°F 54% 30.13 in 10.0 miles ESE 6.9 mph - N/A   Overcast
4:52 PM 54.0°F 37.9°F 55% 30.15 in 10.0 miles ESE 6.9 mph - N/A   Overcast
5:25 PM 53.6°F 37.4°F 54% 30.12 in 10.0 miles ESE 11.5 mph - N/A   Overcast
5:52 PM 53.1°F 39.0°F 59% 30.12 in 10.0 miles ESE 10.4 mph - N/A   Overcast
6:21 PM 51.8°F 39.2°F 62% 30.12 in 10.0 miles ESE 8.1 mph - N/A   Overcast
6:52 PM 52.0°F 39.9°F 63% 30.13 in 10.0 miles East 6.9 mph - N/A   Overcast
7:19 PM 51.8°F 39.2°F 62% 30.12 in 10.0 miles East 6.9 mph - N/A   Overcast
7:52 PM 52.0°F 39.9°F 63% 30.13 in 10.0 miles East 8.1 mph - N/A   Overcast
8:52 PM 51.1°F 41.0°F 68% 30.13 in 10.0 miles ESE 8.1 mph - N/A   Overcast
9:52 PM 51.1°F 42.1°F 71% 30.12 in 9.0 miles East 5.8 mph - N/A   Overcast
10:52 PM 53.1°F 46.0°F 77% 30.12 in 6.0 miles SSE 9.2 mph - N/A   Haze
11:37 PM 51.8°F 48.2°F 88% 30.10 in 3.0 miles SE 8.1 mph - N/A   Overcast
11:52 PM 52.0°F 50.0°F 93% 30.10 in 2.5 miles SE 9.2 mph - N/A   Overcast
Astronomy
Sunrise:07:30 AM (CDT) Moon Rise:02:17 AM (CDT)10/29
Sunset:06:00 PM (CDT) Moon Set:03:17 PM (CDT)10/29
Moon Phase
Oct. 29 Nov. 03 Nov. 10 Nov. 17 Nov. 25

Copyright © 2016 The Weather Underground, Inc.















  Today is Friday, Aug. 26 the 239th day of 2016. There are 127 days left in the year.
1866 — 150 years ago: Frank Burger has just opened a saloon and restaurant in the rear of Buford's block, on the corner of the alley.
1891 — 125 years ago: A thief entered the home of George F. Roth and escaped with a gold watch and chain, a diamond ring and a prayer book.
1916 — 100 years ago: George Stroehle was presented a gold medal in honor of this services as bugler for John Buford post, GAR.
1941 — 75 years ago: Three workmen were burned, two severely, in the explosion shortly before 7 last night in the paint shop of Birtman Co,
1966 — 50 years ago: Four severe cases of polio have been reported recently in Illinois the state health department said Wednesday. All four have been confirmed as type II, the less common type that often causes paralysis.
1991 — 25 years ago: If you're in the mood for some good ol' country music this weekend, head on down to Silvis. Headlining the 17th annual Silvis Country Music Festival on Friday will be Kathy Mattea and John Anderson.